KCRQ

McClellan-Palomar Airport

Airport
ICAO code
KCRQ
IATA Code
CLD
Summary
ICAO Region
NAM
ICAO Territory
Location

Carlsbad, California

Serving
San Diego County
Elevation
331 ft
Coordinates
33° 7' 36" N , 117° 16' 44" W
KCC
Metar
KCRQ 142353Z 21007KT 10SM SCT017 14/09 A3012 RMK AO2 RAE22 SLP197 P0000 60000 T01390089 10161 20122 56009 $

McClellan–Palomar Airport, known to locals as Palomar Airport, is a public airport located 5 km southeast of the central business district of Carlsbad, a city in San Diego County, California.

Climatology

Mediterranean (Köppen climate classification Csb)

Airport map

Aerial View

SKYbrary Partners:

Safety knowledge contributed by: